Time,TemperatureF,DewpointF,PressureIn,WindDirection,WindDirectionDegrees,WindSpeedMPH,WindSpeedGustMPH,Humidity,HourlyPrecipIn,Conditions,Clouds,dailyrainin,SoftwareType,DateUTC
2013-02-19 00:00:00,26.7,5.6,30.14,ESE,119,0.0,1.0,40,0.00,,CLR,0.00,VWS V14.00,2013-02-19 05:00:00,
2013-02-19 00:01:00,26.7,5.6,30.14,ESE,119,0.0,2.0,40,0.00,,CLR,0.00,VWS V14.00,2013-02-19 05:01:00,
2013-02-19 00:06:00,26.7,5.6,30.14,ESE,119,0.0,1.0,40,0.00,,CLR,0.00,VWS V14.00,2013-02-19 05:06:00,
2013-02-19 00:11:00,26.6,5.6,30.14,ESE,119,1.0,1.0,40,0.00,,CLR,0.00,VWS V14.00,2013-02-19 05:11:00,
2013-02-19 00:16:00,26.6,6.1,30.14,ESE,119,1.0,1.0,41,0.00,,CLR,0.00,VWS V14.00,2013-02-19 05:16:00,
2013-02-19 00:21:00,26.6,6.1,30.14,SE,138,3.0,3.0,41,0.00,,CLR,0.00,VWS V14.00,2013-02-19 05:21:00,
2013-02-19 00:26:00,26.6,6.6,30.14,SE,136,1.0,2.0,42,0.00,,CLR,0.00,VWS V14.00,2013-02-19 05:26:00,
2013-02-19 00:31:00,26.7,6.7,30.13,SE,136,0.0,0.0,42,0.00,,CLR,0.00,VWS V14.00,2013-02-19 05:31:00,
2013-02-19 00:36:00,26.7,6.7,30.13,SE,136,0.0,0.0,42,0.00,,CLR,0.00,VWS V14.00,2013-02-19 05:36:00,
2013-02-19 00:41:00,26.9,8.9,30.13,SE,136,0.0,0.0,46,0.00,,CLR,0.00,VWS V14.00,2013-02-19 05:41:00,
2013-02-19 00:46:00,26.9,8.4,30.12,SE,136,0.0,0.0,45,0.00,,CLR,0.00,VWS V14.00,2013-02-19 05:46:00,
2013-02-19 00:51:00,27.0,9.0,30.12,SE,136,2.0,2.0,46,0.00,,CLR,0.00,VWS V14.00,2013-02-19 05:51:00,
2013-02-19 00:56:00,27.0,9.5,30.12,SE,136,0.0,0.0,47,0.00,,CLR,0.00,VWS V14.00,2013-02-19 05:56:00,
2013-02-19 01:01:00,27.0,9.9,30.12,SE,136,0.0,0.0,48,0.00,,CLR,0.00,VWS V14.00,2013-02-19 06:01:00,
2013-02-19 01:06:00,27.0,9.0,30.12,SE,136,0.0,1.0,46,0.00,,CLR,0.00,VWS V14.00,2013-02-19 06:06:00,
2013-02-19 01:11:00,27.2,8.7,30.12,SE,136,1.0,2.0,45,0.00,,CLR,0.00,VWS V14.00,2013-02-19 06:11:00,
2013-02-19 01:16:00,27.3,9.7,30.11,SE,136,2.0,2.0,47,0.00,,CLR,0.00,VWS V14.00,2013-02-19 06:16:00,
2013-02-19 01:21:00,27.5,9.4,30.11,SE,136,1.0,3.0,46,0.00,,CLR,0.00,VWS V14.00,2013-02-19 06:21:00,
2013-02-19 01:26:00,27.6,9.5,30.11,SE,136,0.0,3.0,46,0.00,,CLR,0.00,VWS V14.00,2013-02-19 06:26:00,
2013-02-19 01:31:00,27.6,9.1,30.10,SE,136,1.0,1.0,45,0.00,,CLR,0.00,VWS V14.00,2013-02-19 06:31:00,
2013-02-19 01:36:00,27.8,9.2,30.10,SE,136,0.0,0.0,45,0.00,,CLR,0.00,VWS V14.00,2013-02-19 06:36:00,
2013-02-19 01:41:00,27.8,10.2,30.10,SE,136,0.0,0.0,47,0.00,,CLR,0.00,VWS V14.00,2013-02-19 06:41:00,
2013-02-19 01:46:00,27.9,10.3,30.09,SE,136,0.0,0.0,47,0.00,,OVC055,0.00,VWS V14.00,2013-02-19 06:46:00,
2013-02-19 01:51:00,27.9,10.8,30.09,SE,136,0.0,0.0,48,0.00,,OVC055,0.00,VWS V14.00,2013-02-19 06:51:00,
2013-02-19 01:56:00,27.9,10.3,30.09,SE,136,0.0,0.0,47,0.00,,OVC055,0.00,VWS V14.00,2013-02-19 06:56:00,
2013-02-19 02:01:00,27.9,10.3,30.09,SE,136,0.0,0.0,47,0.00,,OVC055,0.00,VWS V14.00,2013-02-19 07:01:00,
2013-02-19 02:06:00,27.8,10.2,30.09,SE,136,1.0,1.0,47,0.00,,OVC055,0.00,VWS V14.00,2013-02-19 07:06:00,
2013-02-19 02:11:00,27.8,9.7,30.09,SE,136,0.0,2.0,46,0.00,,OVC055,0.00,VWS V14.00,2013-02-19 07:11:00,
2013-02-19 02:16:00,27.8,9.2,30.09,SE,136,0.0,1.0,45,0.00,,OVC055,0.00,VWS V14.00,2013-02-19 07:16:00,
2013-02-19 02:21:00,27.8,9.2,30.09,SE,136,0.0,0.0,45,0.00,,OVC055,0.00,VWS V14.00,2013-02-19 07:21:00,
2013-02-19 02:26:00,27.9,10.3,30.09,SE,136,0.0,0.0,47,0.00,,OVC055,0.00,VWS V14.00,2013-02-19 07:26:00,
2013-02-19 02:31:00,27.9,12.1,30.09,SE,136,0.0,0.0,51,0.00,,OVC055,0.00,VWS V14.00,2013-02-19 07:31:00,
2013-02-19 02:36:00,27.9,12.6,30.09,SE,136,0.0,0.0,52,0.00,,OVC055,0.00,VWS V14.00,2013-02-19 07:36:00,
2013-02-19 02:41:00,27.9,13.0,30.09,SE,136,0.0,0.0,53,0.00,,OVC055,0.00,VWS V14.00,2013-02-19 07:41:00,
2013-02-19 02:46:00,27.9,13.8,30.09,SE,136,0.0,0.0,55,0.00,,BKN048,0.00,VWS V14.00,2013-02-19 07:46:00,
2013-02-19 02:51:00,27.9,13.4,30.09,SE,136,0.0,1.0,54,0.00,,BKN048,0.00,VWS V14.00,2013-02-19 07:51:00,
2013-02-19 02:56:00,27.8,12.5,30.09,SE,136,2.0,2.0,52,0.00,,BKN048,0.00,VWS V14.00,2013-02-19 07:56:00,
2013-02-19 03:01:00,27.8,11.1,30.08,SE,137,0.0,2.0,49,0.00,,BKN048,0.00,VWS V14.00,2013-02-19 08:01:00,
2013-02-19 03:06:00,27.9,10.8,30.08,SE,144,2.0,3.0,48,0.00,,BKN048,0.00,VWS V14.00,2013-02-19 08:06:00,
2013-02-19 03:11:00,28.1,10.5,30.08,SSE,154,0.0,2.0,47,0.00,,BKN048,0.00,VWS V14.00,2013-02-19 08:11:00,
2013-02-19 03:16:00,28.2,10.1,30.07,SSE,154,0.0,3.0,46,0.00,,BKN048,0.00,VWS V14.00,2013-02-19 08:16:00,
2013-02-19 03:21:00,28.2,10.1,30.07,East,91,0.0,1.0,46,0.00,,BKN048,0.00,VWS V14.00,2013-02-19 08:21:00,
2013-02-19 03:26:00,28.4,9.8,30.07,SE,124,1.0,1.0,45,0.00,,BKN048,0.00,VWS V14.00,2013-02-19 08:26:00,
2013-02-19 03:31:00,28.4,9.8,30.07,SE,124,0.0,1.0,45,0.00,,BKN048,0.00,VWS V14.00,2013-02-19 08:31:00,
2013-02-19 03:37:00,28.5,9.9,30.07,SE,124,0.0,0.0,45,0.00,,BKN048,0.00,VWS V14.00,2013-02-19 08:37:00,
2013-02-19 03:42:00,28.5,9.9,30.07,SE,124,1.0,2.0,45,0.00,,BKN048,0.00,VWS V14.00,2013-02-19 08:42:00,
2013-02-19 03:47:00,28.5,9.9,30.07,SE,124,0.0,0.0,45,0.00,,BKN048,0.00,VWS V14.00,2013-02-19 08:47:00,
2013-02-19 03:52:00,28.4,9.3,30.07,SE,124,0.0,1.0,44,0.00,,BKN048,0.00,VWS V14.00,2013-02-19 08:52:00,
2013-02-19 03:57:00,28.4,10.3,30.07,SE,124,0.0,0.0,46,0.00,,BKN048,0.00,VWS V14.00,2013-02-19 08:57:00,
2013-02-19 04:02:00,28.2,10.1,30.06,SE,124,0.0,0.0,46,0.00,,BKN048,0.00,VWS V14.00,2013-02-19 09:02:00,
2013-02-19 04:07:00,28.1,10.5,30.06,ESE,121,1.0,2.0,47,0.00,,BKN048,0.00,VWS V14.00,2013-02-19 09:07:00,
2013-02-19 04:12:00,27.9,9.8,30.06,ESE,118,2.0,2.0,46,0.00,,BKN048,0.00,VWS V14.00,2013-02-19 09:12:00,
2013-02-19 04:17:00,27.9,9.8,30.06,ESE,118,0.0,0.0,46,0.00,,BKN048,0.00,VWS V14.00,2013-02-19 09:17:00,
2013-02-19 04:22:00,27.8,9.7,30.06,ESE,118,0.0,1.0,46,0.00,,BKN048,0.00,VWS V14.00,2013-02-19 09:22:00,
2013-02-19 04:27:00,27.8,10.2,30.06,ESE,118,0.0,0.0,47,0.00,,BKN048,0.00,VWS V14.00,2013-02-19 09:27:00,
2013-02-19 04:32:00,27.6,10.0,30.06,ESE,118,0.0,0.0,47,0.00,,BKN048,0.00,VWS V14.00,2013-02-19 09:32:00,
2013-02-19 04:37:00,27.6,10.5,30.06,ESE,118,0.0,0.0,48,0.00,,BKN048,0.00,VWS V14.00,2013-02-19 09:37:00,
2013-02-19 04:42:00,27.5,10.9,30.06,ESE,118,0.0,0.0,49,0.00,,BKN048,0.00,VWS V14.00,2013-02-19 09:42:00,
2013-02-19 04:47:00,27.3,10.7,30.06,ESE,118,0.0,0.0,49,0.00,,CLR,0.00,VWS V14.00,2013-02-19 09:47:00,
2013-02-19 04:52:00,27.2,10.6,30.06,ESE,118,0.0,0.0,49,0.00,,CLR,0.00,VWS V14.00,2013-02-19 09:52:00,
2013-02-19 04:57:00,27.2,10.6,30.06,ESE,118,0.0,0.0,49,0.00,,CLR,0.00,VWS V14.00,2013-02-19 09:57:00,
2013-02-19 05:02:00,27.0,10.4,30.05,ESE,118,0.0,0.0,49,0.00,,CLR,0.00,VWS V14.00,2013-02-19 10:02:00,
2013-02-19 05:07:00,27.0,10.4,30.05,ESE,118,0.0,0.0,49,0.00,,CLR,0.00,VWS V14.00,2013-02-19 10:07:00,
2013-02-19 05:12:00,26.9,11.2,30.05,ESE,118,0.0,0.0,51,0.00,,CLR,0.00,VWS V14.00,2013-02-19 10:12:00,
2013-02-19 05:17:00,26.7,11.4,30.04,ESE,118,0.0,0.0,52,0.00,,CLR,0.00,VWS V14.00,2013-02-19 10:17:00,
2013-02-19 05:22:00,26.4,12.0,30.04,ESE,119,1.0,2.0,54,0.00,,CLR,0.00,VWS V14.00,2013-02-19 10:22:00,
2013-02-19 05:27:00,26.1,12.2,30.04,ESE,119,0.0,1.0,55,0.00,,CLR,0.00,VWS V14.00,2013-02-19 10:27:00,
2013-02-19 05:32:00,25.8,11.9,30.05,ESE,119,0.0,0.0,55,0.00,,CLR,0.00,VWS V14.00,2013-02-19 10:32:00,
2013-02-19 05:37:00,25.6,11.7,30.05,ESE,119,0.0,0.0,55,0.00,,CLR,0.00,VWS V14.00,2013-02-19 10:37:00,
2013-02-19 05:42:00,25.3,11.8,30.05,ESE,119,0.0,1.0,56,0.00,,CLR,0.00,VWS V14.00,2013-02-19 10:42:00,
2013-02-19 05:47:00,25.1,11.6,30.03,ESE,119,0.0,2.0,56,0.00,,CLR,0.00,VWS V14.00,2013-02-19 10:47:00,
2013-02-19 05:52:00,25.1,12.4,30.03,ESE,121,1.0,1.0,58,0.00,,CLR,0.00,VWS V14.00,2013-02-19 10:52:00,
2013-02-19 05:57:00,25.1,12.4,30.03,ESE,121,0.0,1.0,58,0.00,,CLR,0.00,VWS V14.00,2013-02-19 10:57:00,
2013-02-19 06:02:00,25.3,13.0,30.03,ESE,121,0.0,1.0,59,0.00,,CLR,0.00,VWS V14.00,2013-02-19 11:02:00,
2013-02-19 06:07:00,25.4,13.1,30.03,SE,135,1.0,1.0,59,0.00,,CLR,0.00,VWS V14.00,2013-02-19 11:07:00,
2013-02-19 06:12:00,25.6,13.3,30.03,ESE,103,0.0,3.0,59,0.00,,CLR,0.00,VWS V14.00,2013-02-19 11:12:00,
2013-02-19 06:17:00,25.6,13.3,30.02,ESE,112,1.0,1.0,59,0.00,,CLR,0.00,VWS V14.00,2013-02-19 11:17:00,
2013-02-19 06:22:00,25.7,13.4,30.02,ESE,123,5.0,6.0,59,0.00,,CLR,0.00,VWS V14.00,2013-02-19 11:22:00,
2013-02-19 06:27:00,26.0,13.3,30.02,ESE,102,0.0,3.0,58,0.00,,CLR,0.00,VWS V14.00,2013-02-19 11:27:00,
2013-02-19 06:32:00,26.1,13.4,30.01,SE,140,0.0,0.0,58,0.00,,CLR,0.00,VWS V14.00,2013-02-19 11:32:00,
2013-02-19 06:37:00,26.3,13.1,30.01,SE,130,0.0,2.0,57,0.00,,CLR,0.00,VWS V14.00,2013-02-19 11:37:00,
2013-02-19 06:43:00,26.4,13.2,30.01,SE,130,0.0,1.0,57,0.00,,CLR,0.00,VWS V14.00,2013-02-19 11:43:00,
2013-02-19 06:48:00,26.4,13.2,30.01,SE,130,0.0,1.0,57,0.00,,CLR,0.00,VWS V14.00,2013-02-19 11:48:00,
2013-02-19 06:53:00,26.4,13.2,30.01,SE,130,0.0,1.0,57,0.00,,CLR,0.00,VWS V14.00,2013-02-19 11:53:00,
2013-02-19 06:58:00,26.4,13.6,30.01,SE,130,0.0,0.0,58,0.00,,CLR,0.00,VWS V14.00,2013-02-19 11:58:00,
2013-02-19 07:03:00,26.3,13.9,30.01,SE,130,0.0,0.0,59,0.00,,CLR,0.00,VWS V14.00,2013-02-19 12:03:00,
2013-02-19 07:08:00,26.0,13.6,30.01,SE,130,0.0,1.0,59,0.00,,CLR,0.00,VWS V14.00,2013-02-19 12:08:00,
2013-02-19 07:13:00,25.7,13.8,30.01,SE,130,0.0,2.0,60,0.00,,CLR,0.00,VWS V14.00,2013-02-19 12:13:00,
2013-02-19 07:18:00,25.4,13.5,30.01,SE,130,0.0,0.0,60,0.00,,CLR,0.00,VWS V14.00,2013-02-19 12:18:00,
2013-02-19 07:23:00,25.1,13.2,30.01,SE,130,0.0,0.0,60,0.00,,CLR,0.00,VWS V14.00,2013-02-19 12:23:00,
2013-02-19 07:28:00,25.0,13.1,30.01,SE,130,0.0,0.0,60,0.00,,CLR,0.00,VWS V14.00,2013-02-19 12:28:00,
2013-02-19 07:33:00,24.8,13.3,30.01,SE,130,0.0,0.0,61,0.00,,CLR,0.00,VWS V14.00,2013-02-19 12:33:00,
2013-02-19 07:38:00,24.7,13.2,30.01,SE,130,0.0,0.0,61,0.00,,CLR,0.00,VWS V14.00,2013-02-19 12:38:00,
2013-02-19 07:43:00,24.5,13.0,30.01,SE,130,2.0,2.0,61,0.00,,CLR,0.00,VWS V14.00,2013-02-19 12:43:00,
2013-02-19 07:48:00,24.5,13.4,30.00,NNE,13,2.0,2.0,62,0.00,,CLR,0.00,VWS V14.00,2013-02-19 12:48:00,
2013-02-19 07:53:00,24.5,13.7,30.00,East,88,1.0,1.0,63,0.00,,CLR,0.00,VWS V14.00,2013-02-19 12:53:00,
2013-02-19 07:58:00,24.5,13.7,30.00,East,88,0.0,0.0,63,0.00,,CLR,0.00,VWS V14.00,2013-02-19 12:58:00,
2013-02-19 08:03:00,24.5,13.4,30.01,East,88,0.0,0.0,62,0.00,,CLR,0.00,VWS V14.00,2013-02-19 13:03:00,
2013-02-19 08:08:00,24.5,13.4,30.01,East,88,0.0,0.0,62,0.00,,CLR,0.00,VWS V14.00,2013-02-19 13:08:00,
2013-02-19 08:13:00,24.7,13.9,30.01,East,88,0.0,0.0,63,0.00,,CLR,0.00,VWS V14.00,2013-02-19 13:13:00,
2013-02-19 08:18:00,25.0,14.2,30.00,East,88,0.0,2.0,63,0.00,,CLR,0.00,VWS V14.00,2013-02-19 13:18:00,
2013-02-19 08:23:00,25.3,14.8,30.00,South,178,1.0,5.0,64,0.00,,CLR,0.00,VWS V14.00,2013-02-19 13:23:00,
2013-02-19 08:28:00,25.6,15.1,30.00,South,178,0.0,0.0,64,0.00,,CLR,0.00,VWS V14.00,2013-02-19 13:28:00,
2013-02-19 08:33:00,26.0,15.5,30.00,South,178,1.0,1.0,64,0.00,,CLR,0.00,VWS V14.00,2013-02-19 13:33:00,
2013-02-19 08:38:00,26.7,15.8,30.00,SE,138,0.0,0.0,63,0.00,,CLR,0.00,VWS V14.00,2013-02-19 13:38:00,
2013-02-19 08:43:00,27.5,16.2,30.00,SSW,198,0.0,4.0,62,0.00,,CLR,0.00,VWS V14.00,2013-02-19 13:43:00,
2013-02-19 08:48:00,28.1,16.8,29.99,SSE,159,0.0,1.0,62,0.00,,CLR,0.00,VWS V14.00,2013-02-19 13:48:00,
2013-02-19 08:53:00,28.5,16.8,29.99,SSE,159,0.0,0.0,61,0.00,,CLR,0.00,VWS V14.00,2013-02-19 13:53:00,
2013-02-19 08:58:00,29.3,17.5,29.99,SE,124,0.0,0.0,61,0.00,,CLR,0.00,VWS V14.00,2013-02-19 13:58:00,
2013-02-19 09:03:00,30.0,18.2,29.98,ENE,74,1.0,3.0,61,0.00,,CLR,0.00,VWS V14.00,2013-02-19 14:03:00,
2013-02-19 09:08:00,30.7,18.5,29.98,ENE,74,0.0,2.0,60,0.00,,CLR,0.00,VWS V14.00,2013-02-19 14:08:00,
2013-02-19 09:13:00,31.8,19.5,29.98,SE,125,5.0,5.0,60,0.00,,CLR,0.00,VWS V14.00,2013-02-19 14:13:00,
2013-02-19 09:18:00,32.7,20.4,29.97,East,98,2.0,4.0,60,0.00,,CLR,0.00,VWS V14.00,2013-02-19 14:18:00,
2013-02-19 09:23:00,33.5,20.7,29.97,WSW,246,0.0,1.0,59,0.00,,CLR,0.00,VWS V14.00,2013-02-19 14:23:00,
2013-02-19 09:28:00,33.8,20.6,29.97,SE,146,0.0,1.0,58,0.00,,CLR,0.00,VWS V14.00,2013-02-19 14:28:00,
2013-02-19 09:33:00,34.1,20.5,29.96,SE,146,0.0,0.0,57,0.00,,CLR,0.00,VWS V14.00,2013-02-19 14:33:00,
2013-02-19 09:38:00,34.4,20.3,29.96,SSE,153,0.0,1.0,56,0.00,,CLR,0.00,VWS V14.00,2013-02-19 14:38:00,
2013-02-19 09:43:00,34.3,19.8,29.96,SSE,149,1.0,2.0,55,0.00,,CLR,0.00,VWS V14.00,2013-02-19 14:43:00,
2013-02-19 09:48:00,34.1,19.6,29.97,SSE,149,0.0,1.0,55,0.00,,CLR,0.00,VWS V14.00,2013-02-19 14:48:00,
2013-02-19 09:53:00,34.4,20.3,29.97,East,96,0.0,2.0,56,0.00,,CLR,0.00,VWS V14.00,2013-02-19 14:53:00,
2013-02-19 09:58:00,34.7,20.6,29.97,SSE,159,3.0,4.0,56,0.00,,CLR,0.00,VWS V14.00,2013-02-19 14:58:00,
2013-02-19 10:03:00,35.5,21.4,29.96,SE,130,1.0,3.0,56,0.00,,CLR,0.00,VWS V14.00,2013-02-19 15:03:00,
2013-02-19 10:08:00,36.3,21.7,29.96,ESE,121,1.0,3.0,55,0.00,,CLR,0.00,VWS V14.00,2013-02-19 15:08:00,
2013-02-19 10:13:00,36.9,22.3,29.96,SE,145,5.0,5.0,55,0.00,,CLR,0.00,VWS V14.00,2013-02-19 15:13:00,
2013-02-19 10:18:00,37.0,22.4,29.94,SSE,159,2.0,4.0,55,0.00,,CLR,0.00,VWS V14.00,2013-02-19 15:18:00,
2013-02-19 10:23:00,37.2,22.5,29.94,SE,138,3.0,3.0,55,0.00,,CLR,0.00,VWS V14.00,2013-02-19 15:23:00,
2013-02-19 10:28:00,37.3,22.6,29.94,SSE,161,0.0,0.0,55,0.00,,CLR,0.00,VWS V14.00,2013-02-19 15:28:00,
2013-02-19 10:33:00,37.5,22.4,29.94,ESE,115,1.0,2.0,54,0.00,,CLR,0.00,VWS V14.00,2013-02-19 15:33:00,
2013-02-19 10:38:00,37.8,23.1,29.94,ENE,75,0.0,4.0,55,0.00,,CLR,0.00,VWS V14.00,2013-02-19 15:38:00,
2013-02-19 10:43:00,37.9,23.2,29.94,SSE,164,0.0,3.0,55,0.00,,CLR,0.00,VWS V14.00,2013-02-19 15:43:00,
2013-02-19 10:48:00,38.0,23.3,29.93,East,83,1.0,2.0,55,0.00,,CLR,0.00,VWS V14.00,2013-02-19 15:48:00,
2013-02-19 10:53:00,38.3,23.6,29.93,SE,142,0.0,2.0,55,0.00,,CLR,0.00,VWS V14.00,2013-02-19 15:53:00,
2013-02-19 10:58:00,38.8,24.0,29.93,SE,132,0.0,1.0,55,0.00,,CLR,0.00,VWS V14.00,2013-02-19 15:58:00,
2013-02-19 11:03:00,38.9,24.1,29.91,East,83,0.0,5.0,55,0.00,,CLR,0.00,VWS V14.00,2013-02-19 16:03:00,
2013-02-19 11:08:00,39.3,24.5,29.91,SE,125,4.0,5.0,55,0.00,,CLR,0.00,VWS V14.00,2013-02-19 16:08:00,
2013-02-19 11:13:00,39.5,24.2,29.91,East,82,1.0,3.0,54,0.00,,CLR,0.00,VWS V14.00,2013-02-19 16:13:00,
2013-02-19 11:18:00,39.8,24.5,29.90,SE,128,3.0,5.0,54,0.00,,CLR,0.00,VWS V14.00,2013-02-19 16:18:00,
2013-02-19 11:23:00,39.9,25.1,29.90,SE,134,3.0,3.0,55,0.00,,CLR,0.00,VWS V14.00,2013-02-19 16:23:00,
2013-02-19 11:28:00,39.9,25.5,29.90,SSE,152,2.0,2.0,56,0.00,,CLR,0.00,VWS V14.00,2013-02-19 16:28:00,
2013-02-19 11:34:00,39.9,25.9,29.89,SE,137,4.0,4.0,57,0.00,,CLR,0.00,VWS V14.00,2013-02-19 16:34:00,
2013-02-19 11:39:00,40.1,26.1,29.89,South,182,5.0,5.0,57,0.00,,CLR,0.00,VWS V14.00,2013-02-19 16:39:00,
2013-02-19 11:44:00,40.3,26.3,29.89,SSW,200,2.0,6.0,57,0.00,,CLR,0.00,VWS V14.00,2013-02-19 16:44:00,
2013-02-19 11:49:00,40.5,26.5,29.90,SE,146,1.0,6.0,57,0.00,,CLR,0.00,VWS V14.00,2013-02-19 16:49:00,
2013-02-19 11:54:00,40.9,26.4,29.90,SSE,148,2.0,3.0,56,0.00,,CLR,0.00,VWS V14.00,2013-02-19 16:54:00,
2013-02-19 11:59:00,41.3,26.8,29.90,SSE,148,0.0,6.0,56,0.00,,CLR,0.00,VWS V14.00,2013-02-19 16:59:00,
2013-02-19 12:04:00,41.5,27.0,29.88,SSE,162,2.0,6.0,56,0.00,,CLR,0.00,VWS V14.00,2013-02-19 17:04:00,
2013-02-19 12:09:00,41.5,27.0,29.88,SSW,196,2.0,7.0,56,0.00,,CLR,0.00,VWS V14.00,2013-02-19 17:09:00,
2013-02-19 12:14:00,41.6,27.1,29.88,SE,139,3.0,5.0,56,0.00,,CLR,0.00,VWS V14.00,2013-02-19 17:14:00,
2013-02-19 12:19:00,41.9,27.4,29.87,SSE,166,3.0,7.0,56,0.00,,CLR,0.00,VWS V14.00,2013-02-19 17:19:00,
2013-02-19 12:24:00,42.1,27.1,29.87,SSW,211,5.0,10.0,55,0.00,,CLR,0.00,VWS V14.00,2013-02-19 17:24:00,
2013-02-19 12:29:00,42.2,27.2,29.87,NNE,30,6.0,6.0,55,0.00,,CLR,0.00,VWS V14.00,2013-02-19 17:29:00,
2013-02-19 12:34:00,42.3,27.7,29.85,ESE,122,4.0,9.0,56,0.00,,CLR,0.00,VWS V14.00,2013-02-19 17:34:00,
2013-02-19 12:39:00,42.3,27.7,29.85,ENE,74,5.0,7.0,56,0.00,,CLR,0.00,VWS V14.00,2013-02-19 17:39:00,
2013-02-19 12:44:00,42.5,28.4,29.85,ESE,114,1.0,1.0,57,0.00,,CLR,0.00,VWS V14.00,2013-02-19 17:44:00,
2013-02-19 12:49:00,42.5,28.4,29.83,ESE,112,4.0,4.0,57,0.00,,CLR,0.00,VWS V14.00,2013-02-19 17:49:00,
2013-02-19 12:54:00,42.5,28.4,29.83,SSE,159,2.0,9.0,57,0.00,,CLR,0.00,VWS V14.00,2013-02-19 17:54:00,
2013-02-19 12:59:00,42.5,28.4,29.83,South,173,3.0,9.0,57,0.00,,CLR,0.00,VWS V14.00,2013-02-19 17:59:00,
2013-02-19 13:04:00,42.5,28.8,29.83,SSW,200,1.0,4.0,58,0.00,,CLR,0.00,VWS V14.00,2013-02-19 18:04:00,
2013-02-19 13:09:00,42.5,28.8,29.83,SSE,150,7.0,9.0,58,0.00,,CLR,0.00,VWS V14.00,2013-02-19 18:09:00,
2013-02-19 13:14:00,42.6,28.9,29.83,SSE,157,1.0,4.0,58,0.00,,CLR,0.00,VWS V14.00,2013-02-19 18:14:00,
2013-02-19 13:19:00,42.8,29.1,29.82,SSE,168,2.0,11.0,58,0.00,,CLR,0.00,VWS V14.00,2013-02-19 18:19:00,
2013-02-19 13:24:00,42.8,29.5,29.82,ESE,107,3.0,6.0,59,0.00,,CLR,0.00,VWS V14.00,2013-02-19 18:24:00,
2013-02-19 13:29:00,42.8,29.5,29.82,SE,138,2.0,11.0,59,0.00,,CLR,0.00,VWS V14.00,2013-02-19 18:29:00,
2013-02-19 13:34:00,42.6,29.7,29.82,ESE,113,2.0,3.0,60,0.00,,CLR,0.00,VWS V14.00,2013-02-19 18:34:00,
2013-02-19 13:39:00,42.5,30.0,29.82,SSE,161,6.0,6.0,61,0.00,,CLR,0.00,VWS V14.00,2013-02-19 18:39:00,
2013-02-19 13:44:00,42.3,30.2,29.82,SSE,150,2.0,5.0,62,0.00,,CLR,0.00,VWS V14.00,2013-02-19 18:44:00,
2013-02-19 13:49:00,42.3,30.2,29.81,SE,143,2.0,12.0,62,0.00,,CLR,0.00,VWS V14.00,2013-02-19 18:49:00,
2013-02-19 13:54:00,42.1,31.2,29.81,South,177,2.0,9.0,65,0.00,,CLR,0.00,VWS V14.00,2013-02-19 18:54:00,
2013-02-19 13:59:00,41.6,31.5,29.81,SW,223,4.0,4.0,67,0.00,,CLR,0.00,VWS V14.00,2013-02-19 18:59:00,
2013-02-19 14:04:00,40.9,32.2,29.80,SSE,166,0.0,6.0,71,0.00,,CLR,0.00,VWS V14.00,2013-02-19 19:04:00,
2013-02-19 14:09:00,40.3,32.3,29.80,SE,143,2.0,4.0,73,0.01,,CLR,0.01,VWS V14.00,2013-02-19 19:09:00,
2013-02-19 14:14:00,40.2,32.6,29.80,South,182,1.0,2.0,74,0.01,,CLR,0.01,VWS V14.00,2013-02-19 19:14:00,
2013-02-19 14:19:00,39.8,32.9,29.79,SE,145,3.0,5.0,76,0.01,,CLR,0.01,VWS V14.00,2013-02-19 19:19:00,
2013-02-19 14:24:00,39.5,33.2,29.79,SSW,202,1.0,5.0,78,0.02,,CLR,0.02,VWS V14.00,2013-02-19 19:24:00,
2013-02-19 14:29:00,39.2,33.6,29.79,SE,146,3.0,3.0,80,0.02,,CLR,0.02,VWS V14.00,2013-02-19 19:29:00,
2013-02-19 14:34:00,39.1,33.8,29.78,SW,229,0.0,2.0,81,0.02,,CLR,0.02,VWS V14.00,2013-02-19 19:34:00,
2013-02-19 14:39:00,38.9,33.9,29.78,ESE,119,1.0,5.0,82,0.03,,CLR,0.03,VWS V14.00,2013-02-19 19:39:00,
2013-02-19 14:44:00,38.9,33.9,29.78,SSE,151,4.0,4.0,82,0.03,,CLR,0.03,VWS V14.00,2013-02-19 19:44:00,
2013-02-19 14:49:00,38.8,34.1,29.77,ESE,116,2.0,10.0,83,0.04,,RA,0.04,VWS V14.00,2013-02-19 19:49:00,
2013-02-19 14:54:00,38.8,34.4,29.77,ESE,122,2.0,4.0,84,0.04,,RA,0.04,VWS V14.00,2013-02-19 19:54:00,
2013-02-19 15:00:00,38.6,34.2,29.77,SE,131,3.0,5.0,84,0.04,,RA,0.04,VWS V14.00,2013-02-19 20:00:00,
2013-02-19 15:05:00,38.6,34.5,29.76,South,189,2.0,3.0,85,0.04,,RA,0.04,VWS V14.00,2013-02-19 20:05:00,
2013-02-19 15:10:00,38.6,34.5,29.76,SE,140,6.0,7.0,85,0.05,,RA,0.05,VWS V14.00,2013-02-19 20:10:00,
2013-02-19 15:15:00,38.6,34.8,29.75,SE,146,0.0,7.0,86,0.05,,RA,0.05,VWS V14.00,2013-02-19 20:15:00,
2013-02-19 15:20:00,38.6,34.8,29.75,SE,130,5.0,9.0,86,0.03,,RA,0.05,VWS V14.00,2013-02-19 20:20:00,
2013-02-19 15:25:00,38.8,35.3,29.75,SSE,165,2.0,9.0,87,0.03,,RA,0.05,VWS V14.00,2013-02-19 20:25:00,
2013-02-19 15:30:00,38.6,35.1,29.74,SSE,153,0.0,3.0,87,0.04,,RA,0.06,VWS V14.00,2013-02-19 20:30:00,
2013-02-19 15:35:00,38.8,35.6,29.74,SSE,150,2.0,5.0,88,0.04,,RA,0.06,VWS V14.00,2013-02-19 20:35:00,
2013-02-19 15:40:00,38.8,35.6,29.74,ESE,105,2.0,7.0,88,0.04,,RA,0.06,VWS V14.00,2013-02-19 20:40:00,
2013-02-19 15:45:00,38.8,35.6,29.73,SE,125,5.0,7.0,88,0.04,,RA,0.06,VWS V14.00,2013-02-19 20:45:00,
2013-02-19 15:50:00,38.9,35.9,29.73,SSE,167,1.0,3.0,89,0.03,,-RA,0.06,VWS V14.00,2013-02-19 20:50:00,
2013-02-19 15:55:00,38.9,35.9,29.73,SE,142,3.0,7.0,89,0.04,,-RA,0.07,VWS V14.00,2013-02-19 20:55:00,
2013-02-19 16:00:00,39.1,36.1,29.72,East,99,8.0,9.0,89,0.04,,-RA,0.07,VWS V14.00,2013-02-19 21:00:00,
2013-02-19 16:05:00,39.1,36.1,29.72,SE,124,5.0,7.0,89,0.03,,-RA,0.07,VWS V14.00,2013-02-19 21:05:00,
2013-02-19 16:10:00,39.1,36.1,29.72,SE,124,1.0,4.0,89,0.03,,-RA,0.07,VWS V14.00,2013-02-19 21:10:00,
2013-02-19 16:15:00,38.9,35.9,29.72,SSE,147,5.0,6.0,89,0.03,,-RA,0.07,VWS V14.00,2013-02-19 21:15:00,